[Iaude] MPEC J88: 2024 JA2 [a=2.08,e=0.76,i=12.6,H=24.2]

mpec at cfa.harvard.edu mpec at cfa.harvard.edu
Sun May 5 17:17:58 EDT 2024


M.P.E.C. 2024-J88                                   Issued 2024 May 5, 21:16 UT

     The Minor Planet Electronic Circulars contain information on unusual
         minor planets, routine data on comets and natural satellites,
         and occasional editorial announcements.  They are published
    on behalf of Division F of the International Astronomical Union by the
          Minor Planet Center, Smithsonian Astrophysical Observatory,
                          Cambridge, MA 02138, U.S.A.
			  
             Prepared using the Tamkin Foundation Computer Network

                              MPC at CFA.HARVARD.EDU
            URL https://www.minorplanetcenter.net/    ISSN 1523-6714

                                    2024 JA2                                    


Observations:
     K24J02A 1C2024 05 03.43948 17 04 32.52 +12 51 14.5                VEJ088G96
     K24J02A 1C2024 05 03.45519 17 01 03.91 +12 07 09.1          15.5 GVEJ088G96
     K24J02A*KB2024 05 05.03950 14 55 30.946-16 06 23.00         16.8 GXEJ088L87
     K24J02A KB2024 05 05.04563 14 55 20.489-16 08 21.66         16.8 GXEJ088L87
     K24J02A KB2024 05 05.05175 14 55 10.135-16 10 19.70         17.0 GXEJ088L87
     K24J02A mC2024 05 05.32920014 48 45.767-17 34 01.02         16.81GVEJ088I52
     K24J02A mC2024 05 05.32937014 48 45.533-17 34 03.61         16.74GVEJ088I52
     K24J02A mC2024 05 05.32953914 48 45.306-17 34 06.10         16.75GVEJ088I52
     K24J02A mC2024 05 05.32970914 48 45.076-17 34 08.69         16.79GVEJ088I52
     K24J02A  C2024 05 05.86935614 39 30.27 -19 23 59.7          17.1 GVEJ088L54
     K24J02A  C2024 05 05.87238214 39 27.42 -19 24 30.8          17.0 GVEJ088L54
     K24J02A  C2024 05 05.87615514 39 23.83 -19 25 09.3          17.2 GVEJ088L54

Observer details:
G96 Mt. Lemmon Survey.  Observer H. Groeller.  Measurers B. Gray, D. Rankin,
    F. C. Shelly.  1.5-m reflector + 10K CCD.
I52 Steward Observatory, Mt. Lemmon Station.  Observer V. F. Carvajal.
    Measurers T. Beuden, V. F. Carvajal, D. Fay, J. B. Fazekas, D. C. Fuls, A.
    R. Gibbs, A. D. Grauer, H. Groeller, J. K. Hogan, R. A. Kowalski, S. M.
    Larson, G. J. Leonard, D. Rankin, R. L. Seaman, F. C. Shelly, K. W.
    Wierzchos.  1.0-m prime focus + CCD.
L54 Berthelot Observatory, Hunedoara.  Observers A. Sonka, A. Nedelcu.
    Measurer A. Sonka.  0.50-m f/8 RC + CCD.
L87 Moonbase South Observatory, Hakos.  Observer G. Duszanowicz.  0.28-m f/1.9
    reflector + CMO.

Orbital elements:
2024 JA2                                                 Earth MOID = 0.0072 AU
Epoch 2024 Mar. 31.0 TT = JDT 2460400.5                 MPC                     
M   4.47084              (2000.0)            P               Q                  
n   0.32872789     Peri.   77.94722     -0.52474884     -0.83720304             
a   2.0792738      Node    44.83232     +0.67101283     -0.51816288             
e   0.7615339      Incl.   12.62049     +0.52381336     -0.17492372             
P   3.00           H   24.23          G   0.15           U   8                  
Residuals in seconds of arc
240503 G96  0.3+  0.1+    240505 L87  0.3+  0.0     240505 I52  0.0   0.1+
240503 G96  0.3-  0.1-    240505 I52  0.0   0.1+    240505 L54  0.4+  0.1+
240505 L87  0.4+  0.8-    240505 I52  0.1-  0.1+    240505 L54  0.5-  0.9-
240505 L87  0.1+  0.3-    240505 I52  0.0   0.1+    240505 L54 (2.1-  2.1-)

Ephemeris:
2024 JA2                 a,e,i = 2.08, 0.76, 13                  q = 0.4958
Date    TT    R. A. (2000) Decl.     Delta      r    Elong.  Phase     V
2024 04 05    01 50 46.3 +24 51 32   0.4290  0.6276    22.9   141.8    28.5
...
2024 04 20    01 47 46.4 +27 57 20   0.1864  0.8276    16.5   159.8    31.1
...
2024 04 28    01 30 49.2 +30 35 33   0.07192 0.9396    20.2   158.2    28.8
...
2024 05 04    15 46 11.1 -05 01 29   0.01529 1.0228   161.4    18.3    16.1
2024 05 05    14 56 46.6 -15 53 39   0.02800 1.0366   178.1     1.9    16.8
2024 05 06    14 37 39.8 -19 41 10   0.04157 1.0502   175.2     4.6    17.8
...
2024 05 12    14 10 52.0 -24 31 15   0.1257  1.1314   163.5    14.7    20.8
...
2024 05 20    14 06 00.2 -25 29 34   0.2418  1.2366   155.9    19.5    22.6
...
2024 06 04    14 09 16.3 -25 51 53   0.4738  1.4240   143.6    25.0    24.5

A. U. Tomatic                (C) Copyright 2024 MPC           M.P.E.C. 2024-J88





More information about the Iaude mailing list